This is the latest recevied weather packets stored in our database for station/object IR4UCA-3. If no packets are shown the sender has not sent any weather packets the latest 1 day(s).
| Time | Temp. | Humidity | Pressure | Rain* | Wind** | Luminosity | Snow |
|---|---|---|---|---|---|---|---|
| 1778030366 | 15° C | 91% | 1011.2 hPa | 4.57 mm | - | - | - |
| 1778030230 | 15° C | 91% | 1011.1 hPa | 4.32 mm | - | - | - |
| 1778030122 | 15.56° C | 91% | 1011.2 hPa | 4.32 mm | - | - | - |
| 1778029989 | 15.56° C | 91% | 1011.3 hPa | 4.06 mm | - | - | - |
| 1778029869 | 15.56° C | 91% | 1011.4 hPa | 3.81 mm | - | - | - |
| 1778029754 | 15.56° C | 91% | 1011.4 hPa | 3.81 mm | - | - | - |
| 1778029629 | 15.56° C | 91% | 1011.4 hPa | 3.56 mm | - | - | - |
| 1778029522 | 15.56° C | 91% | 1011.5 hPa | 3.56 mm | - | - | - |
| 1778029275 | 15.56° C | 91% | 1011.6 hPa | 3.56 mm | - | - | - |
| 1778029031 | 15.56° C | 91% | 1011.6 hPa | 3.05 mm | - | - | - |
| 1778028566 | 15.56° C | 91% | 1011.4 hPa | 2.29 mm | - | - | - |
| 1778028189 | 15.56° C | 91% | 1011.4 hPa | 1.52 mm | - | - | - |
| 1778028068 | 15.56° C | 91% | 1011.3 hPa | 1.52 mm | - | - | - |
| 1778027720 | 15.56° C | 91% | 1011.1 hPa | 1.27 mm | - | - | - |
| 1778027589 | 15.56° C | 91% | 1011 hPa | 1.02 mm | - | - | - |
| 1778027470 | 15.56° C | 91% | 1011 hPa | 1.02 mm | - | - | - |
| 1778027352 | 15.56° C | 91% | 1010.9 hPa | 1.02 mm | - | - | - |
| 1778027228 | 15.56° C | 91% | 1011 hPa | 1.02 mm | - | - | - |
| 1778027115 | 15.56° C | 91% | 1011 hPa | 1.02 mm | - | - | - |
| 1778026634 | 15.56° C | 91% | 1010.9 hPa | 0.76 mm | - | - | - |
| 1778026024 | 15.56° C | 91% | 1010.9 hPa | 0.76 mm | - | - | - |
| 1778025902 | 15.56° C | 91% | 1011 hPa | 0.76 mm | - | - | - |
| 1778025421 | 15.56° C | 91% | 1011.3 hPa | 0.76 mm | - | - | - |
| 1778024577 | 15.56° C | 91% | 1011.5 hPa | 0.51 mm | - | - | - |
| 1778024459 | 15.56° C | 91% | 1011.5 hPa | 0.51 mm | - | - | - |
* Rain latest hour (hover to see other rain measurements)
** Current wind speed in m/s (hover to see current wind gust speed)